Время (UTC), дата Ветер
(°,м/с) 
Видим.   Явления Облачность Т
(°С)
Тd
(°С)
f(%) Тe
(°С)
Pmin
(гПа)
dP
(гПа)
Po
(мм)
O2
(г/м3)
Тmin Tmax R s Состояние
почвы
00 01.02.17 340 (С) 7000 м  дым  ясно 
-11.8 -15.1 76 -12  1031.6  -0.6  766  324           
03 01.02.17 290 (З) 8000 м  дымка  6/0 верхняя 
[Ci fib]
-11.5 -14 82 -11  1031.3  -0.3  766  324  -13.4         
06 01.02.17 250 (З) 7000 м  дым  9/0 средняя, верхняя 
[Sc|Ac trans|Ci]
-9.9 -13.9 73 -13  1030.9  -0.3  766  321           
09 01.02.17 280 (З) 10 км    9/0 средняя, верхняя 
[Ac trans|Ci fib]
-6.7 -12.2 65 -10  1029.4  -1.3  765  317           
12 01.02.17 260 (З) 10 км    9/0 средняя, верхняя 
[Ac trans|Ci fib]
-5.4 -11.9 60 -10  1027.5  -1.8  763  315           
15 01.02.17 270 (З) 6000 м  дым  9/0 средняя 
[Sc|Ac trans]
-5.6 -10.1 71 -10  1027.6  763  315    -4.9       
18 01.02.17 260 (З) 8000 м  дым  9/5 840 м средняя 
[Sc|Ac trans]
-5 -11.2 62 -8  1026.5  -1.1  763  314           
21 01.02.17 290 (З) 6000 м  дым  10/6 800 м средняя 
[Sc|Ac und]
-5.3 -9 75 -9  1026.6  0.2  763  314           
00 02.02.17 280 (З) 5000 м  дымка  10/0 средняя 
[Sc|Ac und]
-5.5 -8.6 79 -9  1026.2  -0.3  762  314           
03 02.02.17 290 (З) 4900 м  слаб. снег  10/6 420 м средняя 
[Sc|Ac und]
-5.3 -7.8 83 -8  1026.3  762  314  -5.9    0.0     
06 02.02.17 270 (З) 3900 м  слаб. снег  10/10 300 м 
[Sc]
-4.9 -7.4 83 -8  1026.7  0.3  763  314           
09 02.02.17 280 (З) 3900 м  слаб. снег  10/8 400 м средняя 
[Sc|As op]
-3.4 -6.2 81 -6  1026.8  0.1  763  312           
12 02.02.17 300 (СЗ) 6000 м  слаб. снег  10/8 420 м кучево-дожд., средняя 
[Cb calv|As op]
-2.9 -6.1 79 -5  1026.7  -0.1  763  311           
15 02.02.17 290 (З) 7000 м  слаб. снег  9/6 1000 м средняя 
[Sc|Ac trans]
-2.9 -5.9 80 -5  1027.6  0.9  764  312    -2.6  0.0     
18 02.02.17 320 (СЗ) 4000 м  дым{снег}  10/6 1020 м средняя 
[Sc|Ac und]
-3.3 -6.5 78 -4  1028.5  0.8  764  312           
21 02.02.17 340 (С) 6000 м  дымка  6/0 средняя 
[Sc|Ac trans]
-4.5 -7 83 -6  1029.1  0.4  765  314           
00 03.02.17 тихо ()   2300 м  в посл. час туман  6/0 средняя 
[Ac trans]
-7.9 -9 92 -8  1029.2  765  318           
03 03.02.17 080 (В) 5000 м  дымка{туман} [диам. изморози 0 мм]  8/4 1000 м средняя 
[Sc|Ac trans]
-7.1 -8.2 92 -7  1029.4  0.2  765  317  -8.3    0.0     
06 03.02.17 100 (В) 4400 м  слаб. снег{туман} [диам. изморози 0 мм]  9/6 800 м средняя 
[Sc|Ac trans]
-5.9 -7.4 89 -7  1029.7  0.3  765  316           
09 03.02.17 120 (ЮВ) 6000 м  дымка{снег} [диам. изморози 0 мм]  8/0 средняя, верхняя 
[Sc|Ac trans|Ci fib]
-2.9 -6.3 77 -4  1028.8  -0.8  764  312           
12 03.02.17 130 (ЮВ) 7000 м  слаб. снег [диам. изморози 0 мм]  10/8 420 м средняя 
[Sc|Ac und]
-3.3 -6.2 80 -5  1027.1  -1.6  763  312           
15 03.02.17 110 (В) 8000 м  {снег}  10/6 800 м средняя 
[Sc|Ac und]
-3.5 -6.5 80 -6  1026.7  -0.4  763  312    -2.7  0.0     
18 03.02.17 100 (В) 8000 м  {снег}  10/6 540 м средняя 
[Sc|Ac und]
-4.2 -7.4 78 -8  1026.1  -0.5  762  313           
21 03.02.17 100 (В) 8000 м    10/8 500 м средняя 
[Sc|Ac und]
-4.6 -7.1 83 -8  1024.6  -1.5  761  313           
00 04.02.17 090 (В) 2000 м  снег  10/10 120 м 
[Frnb|Ns]
-4.9 -6.2 91 -10  1023  -1.5  760  313           
03 04.02.17 100 (В) 4100 м  слаб. дождь со снегом [диам. гололёда 0.1 мм]  10/10 630 м 
[Sc|Ns]
-4.2 -5.4 91 -7  1021.3  -1.7  759  311  -5    0.4     
06 04.02.17 140 (ЮВ) 1300 м  ливневой снег [диам. гололёда 0.1 мм]  10/8 120 м кучево-дожд., средняя 
[Cb calv|As op]
+0 -0.7 95 -2  1019.8  -1.1  758  305           
09 04.02.17 170 (Ю) 6{10}  5000 м  слаб. ливневой дождь со снегом [диам. гололёда 0 мм]  10/0 кучево-дожд., средняя 
[Cb calv|As op]
+1.6 +0.3 91 -2  1018.1  -1.6  757  303           
12 04.02.17 180 (Ю) 6{11}  4600 м  слаб. ливневой дождь  10/6 420 м кучево-дожд., средняя 
[Cb calv|As op]
+2.2 +0.7 90 -1  1015.2  -2.9  754  301           
15 04.02.17 180 (Ю) 4100 м  слаб. ливневой дождь  10/8 240 м кучево-дожд., средняя 
[Cb calv|As op]
+2.1 +1.1 93 -1  1013.2  -1.9  753  301    +2.3  11     
18 04.02.17 210 (ЮЗ) 8-11{12}  5000 м  слаб. ливневой дождь  10/8 240 м кучево-дожд., средняя 
[Cb calv|As op]
+3.9 +2.9 93 +1  1011.7  -1.4  752  298           
21 04.02.17 220 (ЮЗ) 9-12{13}  1900 м  слаб. ливневой дождь  10/8 180 м кучево-дожд., средняя 
[Cb calv|As op]
+4.5 +3.5 93 +1  1010.4  -1.2  751  297           
00 05.02.17 260 (З) 6-11{15}  2900 м  слаб. ливневой дождь  10/8 120 м кучево-дожд., средняя 
[Cb calv|As op]
+4.5 +3.7 95 +2  1010.4  751  297           
03 05.02.17 280 (З) 2{13}  3400 м  слаб. ливневой дождь  10/0 кучево-дожд., средняя 
[Cb calv|As op]
+1.6 +0.9 95 +1  1011.2  0.6  751  301  +1.6       
06 05.02.17 270 (З) 4000 м  дымка{ливн. осадки, дождь}  10/8 660 м средняя 
[Sc diur, vesp|As op]
+1.8 +0.3 90 +1  1012.5  1.3  752  301  +1.5         
09 05.02.17 270 (З) 7000 м  дымка  10/8 600 м средняя 
[Sc|Ac und]
+2.4 -0.2 83 1012.8  0.3  753  301           
12 05.02.17 300 (СЗ) 7000 м  дымка  10/8 420 м средняя 
[Sc|Ac und]
+2.4 -0.5 81 +1  1013.1  0.3  753  301           
15 05.02.17 340 (С) 8000 м    10/10 500 м 
[Sc]
+1.6 -1.3 81 +2  1014.3  1.1  754  302    +2.6       
18 05.02.17 060 (СВ) 4900 м  дымка  10/10 450 м 
[Sc]
+0.6 -1.5 86 1014.6  0.2  754  303           
21 05.02.17 090 (В) 2100 м  слаб. ливневой дождь  10/8 450 м кучево-дожд., средняя 
[Cb calv|Ac und]
+0 -0.9 94 -2  1014.4  -0.2  754  304           
00 06.02.17 080 (В) 1400 м  слаб. дождь{ливн. осадки} [диам. гололёда 0 мм]  10/8 100 м средняя 
[Sc|As op]
+0 -0.7 95 -2  1013.6  -0.8  753  304           
03 06.02.17 070 (В) 2100 м  слаб. ливневой дождь [диам. гололёда 3 мм]  10/8 100 м кучево-дожд., средняя 
[Cb calv|As op]
-0.2 -0.8 96 -4  1013.6  753  304  -0.2       
06 06.02.17 070 (В) 4200 м  слаб. переохл. дождь (гололёд){ливн. осадки, снег} [диам. гололёда 5 мм]  10/5 180 м средняя 
[Frnb|As op]
-0.1 -0.9 94 -4  1014.5  0.8  754  304           
09 06.02.17 070 (В) 2300 м  слаб. ливневой снег [диам. гололёда 6 мм]  10/8 270 м кучево-дожд., средняя 
[Cb calv|As op]
-0.3 -1.3 93 -3  1015.2  0.6  754  304           
12 06.02.17 050 (СВ) 6000 м  дымка{ливн. осадки, снег} [диам. гололёда 5 мм]  10/10 300 м 
[St]
-1.8 -3.2 90 -6  1016.6  1.1  755  307           
15 06.02.17 050 (СВ) 8000 м  дымка [диам. гололёда 5 мм]  10/10 400 м 
[St]
-3.5 -5.4 87 -8  1018.9  2.3  757  310    +0     
18 06.02.17 050 (СВ) 8000 м  дымка [диам. гололёда 5 мм]  10/10 400 м 
[Sc]
-4.8 -6.7 87 -9  1021.3  2.2  759  312           
21 06.02.17 050 (СВ) 8000 м  [диам. гололёда 5 мм]  10/10 570 м 
[Sc]
-6.4 -8.5 85 -11  1022.4  0.9  760  314           
00 07.02.17 060 (СВ) 3200 м  слаб. ливневой снег [диам. гололёда 5 мм]  10/8 120 м кучево-дожд., средняя 
[Cb calv|Ac und]
-8.5 -10.5 85 -14  1024.5  1.9  761  318           
03 07.02.17 070 (В) 6000 м  слаб. ливневой снег [диам. гололёда 5 мм]  10/8 480 м кучево-дожд., средняя 
[Cb calv|As op]
-9 -11.1 85 -14  1026.3  1.7  762  319  -9.2    0.3     
06 07.02.17 060 (СВ) 7{10}  1300 м  ливневой снег [диам. гололёда 5 мм]  10/8 100 м кучево-дожд., средняя 
[Cb calv|As op]
-9.7 -11.3 88 -16  1028  1.6  764  320  -9.7         
09 07.02.17 080 (В) 8-12{12}  5000 м  слаб. ливневой снег [диам. гололёда 5 мм]  10/6 360 м кучево-дожд., средняя 
[Cb calv|As op]
-9.7 -11.4 87 -16  1029.3  1.2  765  321           
12 07.02.17 070 (В) 8-11{12}  5000 м  слаб. снег{ливн. осадки} [диам. гололёда 5 мм]  10/0 средняя 
[Sc|As op]
-9.6 -11.7 85 -16  1029.8  0.5  765  321           
15 07.02.17 070 (В) 9-13{12}  3600 м  слаб. снег [диам. гололёда 5 мм]  10/0 средняя 
[Sc|As op]
-10.6 -13.7 78 -18  1030.6  0.7  766  322    -8.9  0.7     
18 07.02.17 080 (В) 7{13}  2400 м  слаб. снег [диам. гололёда 4 мм]  10/0 средняя 
[Frnb|As op]
-11 -13.3 83 -17  1032.3  1.6  767  323           
21 07.02.17 070 (В) 8-12{12}  8000 м  позёмок{снег} [диам. гололёда 4 мм]  10/0 средняя 
[Sc|Ac und]
-11.3 -15.6 70 -18  1033.1  0.8  767  324           
00 08.02.17 070 (В) 8-11{14}  8000 м  {снег} [диам. гололёда 4 мм]  10/0 средняя 
[Sc|Ac und]
-12.5 -16.6 71 -19  1033.7  0.6  768  326           
03 08.02.17 070 (В) 8-11{13}  8000 м  [диам. гололёда 4 мм]  9/0 средняя 
[Ac trans]
-14.6 -18.6 72 -22  1034.5  0.5  768  329  -14.6    0.0     
06 08.02.17 070 (В) 7-10{13}  10 км  [диам. гололёда 2 мм]  8/0 средняя 
[Ac trans]
-16.1 -20 72 -23  1036  1.5  769  331  -16.3         
09 08.02.17 080 (В) 9-12{13}  10 км  [диам. гололёда 0 мм]  4/0 средняя, верхняя 
[Ac trans|Ci fib]
-13.8 -18.1 70 -22  1035.9  769  328           
12 08.02.17 070 (В) 9-13{15}  10 км  [диам. гололёда 0 мм]  3/0 средняя, верхняя 
[Ac trans|Ci fib]
-10.8 -15.8 67 -18  1035.2  -0.6  769  324           
15 08.02.17 070 (В) 8-11{13}  8000 м    3/0 средняя, верхняя 
[Ac trans|Ci fib]
-12.2 -17.4 65 -19  1035.7  0.5  769  326    -10.4       
18 08.02.17 070 (В) 10 км    3/0 верхняя 
[Ci fib]
-13.5 -18.4 67 -20  1036.7  0.8  770  328           
21 08.02.17 070 (В) 8-10{11}  8000 м    ясно 
-14.4 -19 68 -22  1036.4  -0.3  770  329           
00 09.02.17 060 (СВ) 7{11}  8000 м    ясно 
-14.8 -19.1 70 -22  1036.2  -0.1  770  329           
03 09.02.17 070 (В) 7{10}  8000 м    ясно 
-14.4 -19 68 -21  1036.5  0.2  770  329  -15         
06 09.02.17 080 (В) 8-10{10}  10 км    ясно 
-13.6 -18.7 65 -21  1036.9  0.4  770  328  -15.1         
09 09.02.17 050 (СВ) 6{10}  10 км    ясно 
-9.2 -15.2 62 -14  1036.3  -0.4  770  322           
12 09.02.17 060 (СВ) 6{10}  10 км    ясно 
-6.1 -13.4 56 -11  1035.2  -1  769  318           
15 09.02.17 070 (В) 8000 м    4/0 верхняя 
[Ci fib]
-9 -14.6 64 -14  1035.3  769  322    -6.1       
18 09.02.17 050 (СВ) 8000 м    4/0 верхняя 
[Ci fib]
-11.1 -15.3 71 -15  1036  0.6  770  325           
21 09.02.17 050 (СВ) 8000 м  дым  3/0 средняя 
[Ac trans]
-12.7 -16.7 72 -18  1036.2  0.1  770  327           
00 10.02.17 050 (СВ) 8000 м  дым  ясно 
-14.3 -17.8 75 -19  1036.1  770  329           
03 10.02.17 060 (СВ) 8000 м  дым  4/0 средняя, верхняя 
[Ac trans|Ci fib]
-15.3 -18.4 77 -20  1036.1  -0.1  769  330  -15.6         
06 10.02.17 060 (СВ) 7000 м  дым  3/0 средняя, верхняя 
[Ac trans|Ci fib]
-13.9 -17.6 74 -19  1036.6  0.6  770  328           
09 10.02.17 050 (СВ) 10 км    ясно 
-10.4 -14.9 69 -15  1036.2  -0.2  770  324           
12 10.02.17 060 (СВ) 10 км    ясно 
-8.2 -13.5 66 -12  1035.5  -0.6  769  321           
15 10.02.17 060 (СВ) 8000 м    ясно 
-11 -14.3 77 -14  1035.6  769  324    -7.8       
18 10.02.17 060 (СВ) 4800 м  дым  ясно 
-12.4 -14.7 83 -16  1035.6  769  326           
21 10.02.17 050 (СВ) 8000 м    3/0 верхняя 
[Ci fib]
-13.5 -15.7 83 -16  1035.4  -0.3  769  327           
00 11.02.17 010 (С) 3900 м  дымка  9/5 180 м средняя 
[St|Ac trans]
-11.5 -13.1 88 -16  1035.1  -0.2  769  325           
03 11.02.17 050 (СВ) 1800 м  в посл. час снег  10/10 120 м 
[Sc]
-10.6 -11.9 90 -10  1034.1  -0.9  768  323  -13.7    0.0     
06 11.02.17 330 (СЗ) 4700 м  снежные зёрна  10/10 270 м 
[St]
-8.6 -9.8 91 -10  1034.2  0.1  768  321           
09 11.02.17 360 (С) 10 км  в посл. час снег  10/10 570 м 
[Sc|Ac und]
-4.5 -6.7 85 -6  1033.2  -0.8  768  315           
12 11.02.17 050 (СВ) 10 км  {снег}  9/8 750 м средняя 
[Sc|Ac trans]
-1.9 -6.4 71 -5  1032.2  -0.8  767  312           
15 11.02.17 020 (С) 8000 м    8/0 средняя 
[Sc|Ac trans]
-3 -7.4 72 -5  1032.7  0.3  767  313    -1.6  0.0     
18 11.02.17 350 (С) 8000 м  дым  4/0 средняя 
[Sc|Ac trans]
-4.9 -7.7 81 -7  1033.2  0.5  768  316           
21 11.02.17 360 (С) 8000 м    1/0 
[Sc]
-6 -8.6 82 -9  1033.8  0.4  768  317           
00 12.02.17 010 (С) 8000 м    ясно 
-7.1 -9.3 84 -11  1034.2  0.4  768  319           
03 12.02.17 040 (СВ) 8000 м    8/5 1140 м средняя 
[Sc|Ac trans]
-7.2 -9.6 83 -10  1035  0.8  769  319  -7.3         
06 12.02.17 060 (СВ) 10 км    4/0 средняя, верхняя 
[Ac trans|Ci fib]
-6.6 -9.4 80 -10  1036.2  1.1  770  319  -9.4         
09 12.02.17 060 (СВ) 10 км    1/0 
[St]
-3 -7.5 71 -5  1036.6  0.4  770  315           
12 12.02.17 060 (СВ) 10 км    6/0 
[Sc]
-2.5 -7.4 69 -5  1036.1  -0.5  770  314           
15 12.02.17 110 (В) 8000 м    8/5 840 м средняя 
[Sc|Ac trans]
-3.8 -8 73 -5  1036.1  770  315    -2       
18 12.02.17 170 (Ю) 8000 м    5/0 средняя 
[Sc|Ac trans]
-6 -8.5 82 -7  1036.2  770  318           
21 12.02.17 230 (ЮЗ) 8000 м  {снег}  9/0 средняя 
[Sc|Ac trans]
-5.4 -7.2 87 -8  1035.7  -0.5  769  317           
00 13.02.17 280 (З) 8000 м  {снег}  9/0 средняя 
[Sc|Ac trans]
-4.6 -6.9 84 -6  1034.9  -0.6  769  316           
03 13.02.17 230 (ЮЗ) 5000 м  дымка  9/0 средняя 
[Sc|Ac trans]
-5.6 -7 90 -7  1034.2  -0.8  768  317  -6.2    0.0     
06 13.02.17 320 (СЗ) 10 км    9/0 средняя 
[Sc|Ac trans]
-3.9 -6 85 -3  1033.9  -0.2  768  315           
09 13.02.17 200 (Ю) 6000 м  слаб. снег  9/6 360 м средняя 
[Sc|Ac trans]
-1.9 -4.8 81 -3  1033.4  -0.3  768  312           
12 13.02.17 190 (Ю) 1400 м  ливневой снег  10/8 420 м кучево-дожд., средняя 
[Cb calv|Ac und]
-1.6 -5.2 76 -1  1032.1  -1.3  767  311           
15 13.02.17 150 (ЮВ) 2300 м  слаб. ливневой снег  10/8 330 м кучево-дожд., средняя 
[Cb calv|Ac und]
-2.8 -4.4 89 -2  1031.3  -0.7  766  312    -0.4  0.7     
21 13.02.17 210 (ЮЗ) 0500 м  ливневой снег  ?/?  
-3.7 -4.6 93 -3  1030  -0.9  765  313           
00 14.02.17 230 (ЮЗ) 1900 м  дымка{ливн. осадки, снег}  9/9 1230 м 
[Sc]
-5 -5.9 93 -5  1029  -1  764  314           
03 14.02.17 220 (ЮЗ) 5000 м  дымка{снег}  10/5 1320 м средняя 
[Sc|Ac und]
-5.8 -7 91 -8  1027.3  -1.6  763  315  -6.3       
06 14.02.17 260 (З) 3800 м  слаб. ливневой снег  9/6 330 м кучево-дожд., средняя 
[Cb calv|Ac trans]
-4.7 -6.5 87 -7  1026.2  -1.1  762  313           
09 14.02.17 240 (ЮЗ) 10-15{13}  3400 м  метель{ливн. осадки, снег}  9/6 480 м средняя 
[Sc|Ac trans]
-4.8 -7.8 79 -11  1023.3  -2.7  760  313           
12 14.02.17 250 (З) 11-18{17}  5000 м  метель{ливн. осадки, снег}  10/6 630 м средняя 
[Sc|Ac und]
-5.3 -9 75 -12  1018.5  -4.9  757  312           
15 14.02.17 250 (З) 9-16{20}  0300 м  сильн. снег  ?/?  
-5.9 -7.4 89 -12  1014.4  -3.8  754  311    -4.2  0.2     
18 14.02.17 250 (З) 9-14{20}  0200 м  ливневой снег  ?/?  
-5.2 -6.1 93 -11  1011.4  -2.9  751  309           
21 14.02.17 260 (З) 7-11{14}  3500 м  слаб. снег  10/8 330 м средняя 
[Frnb|As op]
-4.5 -5.3 94 -9  1009.8  -1.6  750  308           
00 15.02.17 260 (З) 5{14}  3800 м  слаб. снег  10/8 300 м средняя 
[Sc|As op]
-4.2 -5 94 -8  1009.3  0.1  750  307           
03 15.02.17 270 (З) 6000 м  слаб. ливневой снег  9/0 кучево-дожд., средняя 
[Cb calv|Ac trans]
-3.1 -3.8 95 -6  1009.9  0.6  750  306  -4.5       
06 15.02.17 300 (СЗ) 6000 м  слаб. ливневой снег  9/0 кучево-дожд., средняя 
[Cb calv|Ac As]
-0.8 -1.6 94 -3  1011.2  1.3  751  304           
09 15.02.17 360 (С) 7-10{10}  10 км  слаб. ливневой снег  9/6 700 м кучево-дожд., средняя 
[Cb calv|Ac trans]
-0.1 -3.6 77 -4  1013  1.8  753  304           
12 15.02.17 350 (С) 7-11{14}  10 км  {ливн. осадки}  9/0 кучево-дожд., средняя 
[Cb calv|Ac trans]
-0.2 -5.4 68 -4  1014.9  1.8  754  305           
15 15.02.17 010 (С) 6-10{14}  8000 м  слаб. снег  9/6 570 м средняя 
[Sc|Ac trans]
-2.5 -7.3 70 -6  1018.7  3.6  757  309    +0.5  0.3     
18 15.02.17 340 (С) 3{14}  8000 м  {снег}  8/0 средняя 
[Sc|Ac trans]
-3.7 -8.2 71 -6  1021.7  2.9  759  311           
21 15.02.17 310 (СЗ) 8000 м    8/4 900 м средняя 
[Sc|Ac trans]
-3.4 -7.2 75 -6  1022.7  0.9  760  311           
00 16.02.17 320 (СЗ) 5000 м  слаб. ливневой дождь{снег}  10/8 700 м кучево-дожд., средняя 
[Cb calv|Ac und]
-2.8 -5 85 -6  1023.6  0.8  761  310           
03 16.02.17 340 (С) 5{10}  8000 м  {ливн. осадки}  9/0 средняя 
[Sc|Ac trans]
-3.3 -7.6 72 -7  1024.9  1.3  761  311  -5    0.0     
06 16.02.17 350 (С) 7-10{10}  10 км  {ливн. осадки}  4/0 средняя 
[Ac trans]
-5.6 -9.6 73 -11  1026.9  1.8  763  315  -5.8         
09 16.02.17 350 (С) 6{12}  10 км    1/0 средняя 
[Ac trans]
-4.4 -9.5 68 -9  1027.7  0.8  764  314           
12 16.02.17 340 (С) 6-10{12}  10 км    1/0 средняя 
[Ac trans]
-3.8 -10 62 -8  1027.8  0.1  764  313           
15 16.02.17 350 (С) 5{10}  8000 м    ясно 
-5.1 -10.6 65 -9  1029.1  1.1  765  315    -3.3       
18 16.02.17 340 (С) 4{10}  8000 м    ясно 
-7.4 -11.6 72 -11  1030.7  1.5  766  318           
21 16.02.17 330 (СЗ) 8000 м    ясно 
-8.9 -12.6 74 -11  1031.4  0.5  766  320           
00 17.02.17 340 (С) 8000 м    3/0 верхняя 
[Ci fib]
-10.7 -13.4 80 -13  1031.6  0.1  766  323           
03 17.02.17 320 (СЗ) 8000 м    3/0 верхняя 
[Ci fib]
-12.2 -14 86 -12  1032  0.3  767  325  -13.6         
06 17.02.17 тихо ()   5000 м  дым  1/0 верхняя 
[Ci fib]
-9.2 -11.6 83 -9  1032.4  0.5  767  321  -13.9         
09 17.02.17 130 (ЮВ) 6000 м  дым  ясно 
-4.2 -10.2 63 -5  1031.5  -0.6  766  315           
12 17.02.17 150 (ЮВ) 10 км    1/0 средняя 
[Ac trans]
-3.1 -11 54 -5  1029.7  -1.6  765  313           
15 17.02.17 220 (ЮЗ) 8000 м    8/0 средняя 
[Ac trans]
-5.8 -10.7 68 -9  1029.4  -0.4  765  316    -1.4       
18 17.02.17 220 (ЮЗ) 8000 м    9/0 средняя 
[Ac trans]
-6.7 -10.6 74 -10  1029.2  -0.3  765  317           
21 17.02.17 230 (ЮЗ) 8000 м    9/0 средняя 
[Sc|Ac trans]
-6.5 -9.5 79 -11  1028.4  -0.6  764  316           
00 18.02.17 220 (ЮЗ) 8000 м    10/0 средняя 
[Sc|Ac und]
-6.7 -9.7 79 -11  1027.4  -0.9  763  316           
03 18.02.17 230 (ЮЗ) 1200 м  снег  10/8 240 м средняя 
[Sc|As op]
-6.6 -8.4 87 -10  1026.6  -0.8  763  316  -6.9    0.0     
06 18.02.17 220 (ЮЗ) 6000 м  дым{снег, ливн. осадки}  6/0 средняя 
[Sc diur, vesp|Ac trans]
-5 -8.4 77 -7  1026.6  763  314           
09 18.02.17 260 (З) 10 км    8/0 средняя 
[Sc|Ac trans]
+1.3 -4.4 66 -1  1025.4  -0.7  762  306           
12 18.02.17 280 (З) 4{10}  10 км    10/0 средняя 
[Sc|Ac As]
+1.8 -3.4 68 1024.6  -0.8  761  305           
15 18.02.17 240 (ЮЗ) 8000 м  в посл. час снег  10/5 270 м средняя 
[Sc|As op]
+0.2 -1.9 86 -2  1025  0.2  762  307    +2  0.2     
18 18.02.17 240 (ЮЗ) 8000 м    8/0 средняя 
[Sc|Ac trans]
-1 -4.1 79 -3  1025.2  0.1  762  309           
21 18.02.17 240 (ЮЗ) 6000 м  слаб. ливневой снег  10/8 600 м кучево-дожд., средняя 
[Cb calv|Ac und]
-0.9 -3.4 83 -3  1025.3  0.1  762  308           
00 19.02.17 230 (ЮЗ) 8000 м  {ливн. осадки, снег}  9/0 средняя 
[Sc|Ac trans]
-0.4 -3.3 81 -2  1025.3  762  308           
03 19.02.17 260 (З) 4300 м  дымка  8/0 средняя 
[Sc|Ac trans]
-1.9 -3.3 90 -3  1026.6  1.1  763  310  -1.9    0.0     
06 19.02.17 240 (ЮЗ) 2100 м  туман  8/4 1110 м средняя 
[Sc|Ac trans]
-0.7 -1.5 94 -2  1027.9  1.4  764  309  -2.7         
09 19.02.17 230 (ЮЗ) 10 км    9/5 1140 м средняя 
[Sc|Ac trans]
+2.8 -1.5 73 +1  1028.2  0.3  764  305           
12 19.02.17 280 (З) 10 км    6/0 средняя 
[Sc|Ac trans]
+5.4 -0.5 66 +4  1027.6  -0.5  764  302           
15 19.02.17 250 (З) 8000 м    4/0 средняя 
[Ac trans]
+3.2 -0.9 74 +3  1027.6  764  304    +5.5       
18 19.02.17 230 (ЮЗ) 8000 м  дымка  4/0 средняя 
[Ac trans]
+0.2 -2.3 83 -2  1027.7  764  308           
21 19.02.17 260 (З) 4900 м  дымка  4/0 средняя 
[Ac trans]
-0.9 -2.7 88 -2  1027  -0.6  763  309           
00 20.02.17 280 (З) 3900 м  дымка  6/0 средняя 
[Sc|Ac trans]
-0.8 -2.1 91 -2  1026.2  -0.8  763  308           
03 20.02.17 250 (З) 5000 м  дымка  9/6 1000 м средняя 
[Sc|Ac trans]
-0.1 -1.9 88 +1  1025.7  -0.5  762  307  -1.8         
06 20.02.17 250 (З) 4600 м  дымка  9/5 900 м средняя 
[Sc|Ac trans]
+1 -0.9 87 +2  1025.3  -0.3  762  306           
09 20.02.17 210 (ЮЗ) 10 км    6/0 средняя 
[Sc|Ac trans]
+5.6 -0.8 63 +5  1024.4  -0.7  761  301           
12 20.02.17 210 (ЮЗ) 10 км    3/0 средняя, верхняя 
[Ac trans|Ci fib]
+6.7 +0.5 65 +5  1022.1  -2.1  760  299           
15 20.02.17 220 (ЮЗ) 6000 м  дымка  3/0 верхняя 
[Ci fib]
+3.5 +0.2 79 +2  1020.6  -1.5  758  302    +6.9       
18 20.02.17 200 (Ю) 3000 м  дымка  4/0 верхняя 
[Ci fib]
+2.2 -0.1 85 +3  1019.8  -0.7  758  303           
21 20.02.17 тихо ()   3600 м  дымка  ясно 
+1.4 -0.2 89 +1  1018.3  -1.6  757  303           
00 21.02.17 070 (В) 3000 м  дымка  ясно 
-0.2 -1.5 91 -1  1015.9  -2.3  755  305           
03 21.02.17 090 (В) 2700 м  дымка  ясно 
-2.6 -3.9 91 -5  1014.1  -1.8  753  307  -2.5         
06 21.02.17 230 (ЮЗ) 10 км    5/0 средняя, верхняя 
[Ac trans|Ci fib]
+1.2 -2.6 76 1013.4  -0.6  753  302  -2.7         
09 21.02.17 220 (ЮЗ) 5000 м  в посл. час дождь  9/9 150 м 
[Sc]
+3.9 +2.6 91 +2  1012.7  -0.5  753  299           
12 21.02.17 220 (ЮЗ) 8-10{14}  10 км  {дождь}  9/9 360 м 
[Sc]
+5 +2.3 83 +2  1011.2  -1.3  752  297           
15 21.02.17 220 (ЮЗ) 5{11}  8000 м    9/9 480 м 
[Sc]
+4.7 +2.3 84 +3  1010.9  -0.4  751  297    +5.5  0.0     
18 21.02.17 220 (ЮЗ) 6{12}  8000 м  слаб. дождь  10/8 330 м средняя 
[Sc|Ac und]
+3.8 +1.6 86 +1  1009.9  -0.9  751  298           
21 21.02.17 210 (ЮЗ) 7{12}  8000 м  слаб. дождь  9/9 210 м 
[Sc]
+3.2 +1.6 89 1008.7  -1.2  750  298           
00 22.02.17 230 (ЮЗ) 6{12}  5000 м  в посл. час ливневой дождь  10/6 150 м кучево-дожд., средняя 
[Cb calv|Ac und]
+2.5 +1.5 93 1007.7  -1  749  299           
03 22.02.17 220 (ЮЗ) 7-10{12}  6000 м  дымка{ливн. осадки}  10/8 270 м средняя 
[Sc|Ac und]
+3.3 +2 91 1006.6  -1.1  748  297  +2.2    0.4     
06 22.02.17 240 (ЮЗ) 7-11{12}  5000 м  слаб. ливневой дождь  10/8 270 м кучево-дожд., средняя 
[Cb calv|Ac und]
+3.1 +1.7 91 1006.7  0.1  748  298           
09 22.02.17 240 (ЮЗ) 7{14}  4600 м  слаб. ливневой дождь  10/8 270 м кучево-дожд., средняя 
[Cb calv|Ac und]
+3.3 +2 91 1006.1  -0.6  748  297           
12 22.02.17 250 (З) 5{14}  5000 м  слаб. ливневой дождь  10/8 210 м кучево-дожд., средняя 
[Cb calv|Ac und]
+1.8 +0.7 92 -1  1005.1  -0.9  747  299           
15 22.02.17 240 (ЮЗ) 5000 м  слаб. ливневой дождь  10/8 180 м кучево-дожд., средняя 
[Cb calv|Ac und]
+1.9 +0.9 93 -1  1005.1  747  299    +3.4     
18 22.02.17 270 (З) 1800 м  ливневой снег [диам. отлож. мокр. снега 2 мм]  10/8 120 м кучево-дожд., средняя 
[Cb calv|Ac und]
+0.4 -0.4 94 -1  1006.7  1.4  748  301           
21 22.02.17 270 (З) 2000 м  дымка{ливн. осадки, туман} [диам. отлож. мокр. снега 0 мм]  10/10 100 м 
[St]
+1.3 +0.6 95 -1  1008.8  2.1  750  301           
00 23.02.17 250 (З) 5000 м  дымка{ливн. осадки, туман} [диам. отлож. мокр. снега 0 мм]  10/10 210 м 
[Sc]
+1.5 +0.4 92 -1  1010.4  1.5  751  301           
03 23.02.17 220 (ЮЗ) 6000 м  дымка  9/0 
[Sc]
+0.9 -0.3 92 -2  1009.9  -0.4  750  301  +0.4       
06 23.02.17 220 (ЮЗ) 8000 м  дымка  9/0 средняя 
[Sc|Ac trans]
+1.2 +0 92 -1  1009.6  -0.3  750  301           
09 23.02.17 230 (ЮЗ) 11-15{13}  6000 м  слаб. дождь  10/6 630 м средняя 
[Sc|Ac und]
+4.6 +1.7 81 +1  1006.4  -2.8  748  296           
12 23.02.17 220 (ЮЗ) 11-16{18}  2500 м  слаб. дождь  10/6 180 м средняя 
[Sc|As op]
+4.8 +3.5 91 +1  1002.8  -3.6  745  295           
15 23.02.17 230 (ЮЗ) 12-16{18}  7000 м  слаб. ливневой дождь  10/6 210 м кучево-дожд., средняя 
[Cb calv|As op]
+5.8 +4.5 91 +2  1001.5  -1.1  744  293    +5.9     
18 23.02.17 240 (ЮЗ) 8-10{18}  8000 м  слаб. ливневой дождь  10/8 1260 м кучево-дожд., средняя 
[Cb calv|As op]
+4.8 +2.7 86 +2  1003.3  1.6  746  295           
21 23.02.17 260 (З) 5{10}  6000 м  дымка{ливн. осадки}  8/4 700 м средняя 
[Sc|Ac trans]
+2.7 +1.5 92 1006.1  2.6  748  298           
00 24.02.17 280 (З) 4{10}  7000 м  дымка{ливн. осадки}  4/0 средняя 
[St|Ac trans]
+1.6 +0.2 90 -1  1008.9  2.7  750  300           
03 24.02.17 260 (З) 8000 м    3/0 средняя 
[Ac trans]
+1 -0.5 90 -1  1010.7  1.6  751  302  +1       
06 24.02.17 230 (ЮЗ) 6000 м  дымка  8/0 средняя, верхняя 
[Ac trans|Ci fib]
+1.3 +0.1 92 1011.9  1.2  752  302  +0.6         
09 24.02.17 220 (ЮЗ) 8000 м  в посл. час дождь  9/0 средняя 
[Sc|Ac trans]
+5.4 +2.8 83 +3  1011  -0.8  751  296           
12 24.02.17 240 (ЮЗ) 7000 м  дымка{дождь}  9/0 средняя, верхняя 
[Sc|Ac trans|Ci fib]
+10.4 +7.4 82 +9  1008.7  -2  750  290           
15 24.02.17 240 (ЮЗ) 5{11}  8000 м    8/0 средняя, верхняя 
[Ac trans|Ci fib]
+9.7 +6.2 79 +8  1008.8  750  291    +11.6  0.0     
18 24.02.17 230 (ЮЗ) 7{11}  8000 м  дымка  6/0 средняя 
[Sc|Ac trans]
+8.4 +5.8 84 +6  1009.5  0.6  750  292           
21 24.02.17 230 (ЮЗ) 9-12{17}  8000 м    9/0 средняя 
[Sc|Ac trans]
+8.1 +4.8 80 +5  1009.9  0.3  751  293           
00 25.02.17 240 (ЮЗ) 9-13{17}  8000 м    9/6 1050 м средняя 
[Sc|Ac trans]
+8.2 +3.5 72 +5  1009.5  -0.2  750  293           
03 25.02.17 230 (ЮЗ) 8-10{13}  8000 м    9/0 средняя 
[Sc|Ac trans]
+7.3 +3.6 77 +5  1009.9  0.2  751  294  +7.2         
06 25.02.17 230 (ЮЗ) 6{13}  10 км    9/0 средняя, верхняя 
[Sc|Ac trans|Ci fib]
+7.8 +4.7 81 +6  1010.7  0.8  751  294  +7.1         
09 25.02.17 220 (ЮЗ) 8-10{14}  10 км    9/0 средняя 
[Sc|Ac trans]
+9.9 +6.6 80 +8  1009.5  -1  750  291           
12 25.02.17 250 (З) 10-15{16}  10 км  слаб. дождь  10/8 480 м средняя 
[Sc|Ac und]
+10 +6.5 79 +8  1008.3  -1.1  749  290           
15 25.02.17 260 (З) 6{16}  4500 м  слаб. ливневой дождь{снег}  10/8 150 м кучево-дожд., средняя 
[Cb calv|Ac und]
+6.4 +5 91 +4  1007.4  -1  749  294    +10.7     
18 25.02.17 280 (З) 3{16}  1300 м  ливневой дождь со снегом  10/8 150 м кучево-дожд., средняя 
[Cb calv|Ac und]
+0.6 -0.2 94 -1  1011.4  3.8  752  302           
21 25.02.17 310 (СЗ) 3{11}  8000 м  в посл. час дождь со снегом{ливн. осадки}  10/0 средняя 
[Sc|Ac und]
+0.2 -1.8 86 -2  1015.7  4.2  755  304           
00 26.02.17 300 (СЗ) 3{11}  8000 м  {ливн. осадки, снег}  3/0 средняя 
[Ac trans]
-1.2 -3.9 82 -3  1019.1  3.2  757  307           
03 26.02.17 270 (З) 8000 м    3/0 средняя 
[Ac trans]
-1.7 -4.1 84 -4  1021.7  2.5  759  308  -2       
06 26.02.17 260 (З) 10 км    3/0 
[St]
-0.8 -3.1 84 -4  1023.7  761  308  -2.2         
09 26.02.17 260 (З) 10 км    4/0 
[Sc]
+2 -2.7 71 -1  1024.2  0.5  761  305           
12 26.02.17 250 (З) 7{11}  10 км    8/0 кучево-дожд., средняя 
[Cb calv|Ac trans]
+2.2 -2.1 73 -1  1024.6  0.3  761  305           
15 26.02.17 260 (З) 4{10}  10 км    9/0 средняя 
[Ac trans]
+0.8 -2.8 77 -2  1025  0.4  762  306    +2.8       
18 26.02.17 260 (З) 4{10}  8000 м    9/0 средняя 
[Ac trans]
+0.3 -3.2 77 -2  1025.4  0.3  762  307           
21 26.02.17 230 (ЮЗ) 8000 м    3/0 средняя 
[Ac trans]
-1 -4.1 79 -3  1024.1  -1.1  761  308           
00 27.02.17 270 (З) 8000 м    4/0 средняя 
[Ac trans]
-0.2 -3.8 77 -2  1023.1  -1  760  307           
03 27.02.17 210 (ЮЗ) 8000 м    4/0 средняя 
[Ac trans]
-1.5 -4 83 -2  1023  -0.1  760  308  -1.5         
06 27.02.17 230 (ЮЗ) 10 км    9/0 средняя 
[Sc|Ac trans]
+1.1 -1.3 84 -2  1022.8  -0.1  760  305  -1.7         
09 27.02.17 230 (ЮЗ) 5{10}  8000 м  слаб. дождь  10/0 средняя 
[Sc|Ac und]
+2.9 -0.4 79 1022.5  -0.1  760  303           
12 27.02.17 220 (ЮЗ) 6{10}  5000 м  слаб. снег{ливн. осадки, дождь}  10/6 100 м средняя 
[Frnb|As op]
+1.3 +0.4 94 -2  1021.6  -0.9  759  304           
15 27.02.17 220 (ЮЗ) 10 км  {снег}  9/6 210 м средняя 
[Sc|Ac trans]
+1.4 +0 90 -1  1021.1  -0.5  759  304    +3.3  0.6     
18 27.02.17 230 (ЮЗ) 7000 м  дымка{снег}  9/0 средняя 
[Sc|Ac trans]
+1.8 +0.7 92 1021.9  0.8  759  304           
21 27.02.17 270 (З) 8000 м    9/0 средняя 
[Sc|Ac trans]
+2.8 -0.2 81 +1  1022.3  0.4  760  303           
00 28.02.17 270 (З) 8000 м    6/0 средняя 
[Ac trans]
+1.2 -1.4 83 1022.5  0.1  760  305           
03 28.02.17 250 (З) 7000 м  дымка  4/0 средняя 
[Sc|Ac trans]
-0.6 -1.9 91 -1  1023.2  0.5  760  307  -1.2         
06 28.02.17 220 (ЮЗ) 6000 м  дымка  4/0 средняя 
[Sc|Ac trans]
+2.8 +0.5 85 +2  1024.8  1.6  762  304           
09 28.02.17 200 (Ю) 10 км  {туман}  3/0 
[Sc]
+8.4 +1.8 63 +8  1024.7  0.1  762  297           
12 28.02.17 130 (ЮВ) 10 км    5/0 
[Sc]
+9.6 +0.6 53 +9  1023.2  -1.4  761  296           
15 28.02.17 090 (В) 10 км    6/0 средняя, верхняя 
[Sc|Ac trans|Ci fib]
+6.8 +0.9 66 +6  1022.9  -0.4  760  299    +10.1       
18 28.02.17 100 (В) 8000 м    ясно 
+3.6 +0.9 82 +2  1023.4  0.4  761  302           
21 28.02.17 090 (В) 6000 м  дымка  ясно 
+2.1 +0.5 89 -1  1022.9  -0.6  760  304           
00 01.03.17 090 (В) 8000 м    ясно 
+1.8 -0.6 84 -2  1022.2  -0.6  760  304           
03 01.03.17 090 (В) 6{10}  8000 м    ясно 
+0.4 -1.5 87 -3  1021.5  -0.7  759  306  +0.4         
06 01.03.17 080 (В) 6{10}  10 км    4/0 верхняя 
[Ci fib]
+2.3 -1 79 -1  1021.2  -0.3  759  303  +0         
09 01.03.17 090 (В) 10 км    5/0 верхняя 
[Ci fib]
+8 +1.7 64 +6  1020  -1  758  297           
Время (UTC), дата Ветер
(°,м/с) 
Видим.   Явления Облачность Т
(°С)
Тd
(°С)
f(%) Тe
(°С)
Pmin
(гПа)
dP
(гПа)
Po
(мм)
O2
(г/м3)
Тmin Tmax R s Состояние
почвы